Location: Unnamed
(51.8936°N, 11.0665°E)
Time: 16:48:58
(UTC+02:00)

UKube-1 - Pass Details

Date: 02 October 2021
Orbit: 611 x 617 km, 98.4° (Epoch: 28 October)

Event Time Altitude Azimuth Distance (km) Brightness Sun altitude
Rises 21:58:22 0° 17° (NNE) 2,894 ? -28.4°
Reaches altitude 10° 22:00:35 10° 21° (NNE) 1,985 ? -28.7°
Enters shadow 22:00:42 11° 21° (NNE) 1,936 ? -28.7°
